This is the latest recevied weather packets stored in our database for station/object KF6RAL-6. If no packets are shown the sender has not sent any weather packets the latest 10 day(s).
| Time | Temp. | Humidity | Pressure | Rain* | Wind** | Luminosity | Snow |
|---|---|---|---|---|---|---|---|
| 1777224589 | 8.33° C | 87% | 999.8 hPa | 2.79 mm | - | - | - |
| 1777224167 | 7.78° C | 86% | 1000.5 hPa | 2.79 mm | - | - | - |
| 1777223325 | 7.78° C | 86% | 1000.4 hPa | 3.05 mm | - | - | - |
| 1777222905 | 8.33° C | 87% | 999.6 hPa | 2.79 mm | - | - | - |
| 1777222483 | 8.33° C | 87% | 999.5 hPa | 3.05 mm | - | - | - |
| 1777222062 | 8.33° C | 87% | 999.4 hPa | 3.3 mm | - | - | - |
| 1777221642 | 8.33° C | 87% | 999.4 hPa | 3.56 mm | - | - | - |
| 1777221220 | 7.78° C | 87% | 999.3 hPa | 3.56 mm | - | - | - |
| 1777220799 | 8.33° C | 87% | 999.3 hPa | 3.56 mm | - | - | - |
| 1777220378 | 7.78° C | 87% | 999.2 hPa | 3.81 mm | - | - | - |
| 1777219957 | 8.33° C | 87% | 999.3 hPa | 3.56 mm | - | - | - |
| 1777219536 | 8.33° C | 86% | 999.3 hPa | 3.3 mm | - | - | - |
| 1777219115 | 7.78° C | 86% | 999.3 hPa | 3.3 mm | - | - | - |
| 1777218694 | 8.33° C | 86% | 999.3 hPa | 3.05 mm | - | - | - |
| 1777218273 | 7.78° C | 86% | 999.3 hPa | 2.54 mm | - | - | - |
| 1777217852 | 8.33° C | 86% | 999.8 hPa | 2.54 mm | - | - | - |
| 1777217431 | 7.78° C | 85% | 1000.1 hPa | 2.29 mm | - | - | - |
| 1777217010 | 7.78° C | 85% | 1000.1 hPa | 2.54 mm | - | - | - |
| 1777216589 | 8.33° C | 85% | 999.9 hPa | 2.54 mm | - | - | - |
| 1777215326 | 8.33° C | 85% | 1000 hPa | 1.78 mm | - | - | - |
| 1777214905 | 8.33° C | 85% | 1000 hPa | 1.52 mm | - | - | - |
| 1777214484 | 8.33° C | 84% | 999.8 hPa | 1.27 mm | - | - | - |
| 1777214063 | 8.33° C | 84% | 999.9 hPa | 1.27 mm | - | - | - |
| 1777213221 | 8.33° C | 84% | 1000 hPa | 0.76 mm | - | - | - |
| 1777212800 | 8.33° C | 84% | 1000 hPa | 1.02 mm | - | - | - |
* Rain latest hour (hover to see other rain measurements)
** Current wind speed in m/s (hover to see current wind gust speed)